Terminal Aerodrome Forecast
Issued by NWS

Home | Current Version | Previous Version | Graphics & Text | Print | Product List | Glossary Off
Versions: 1 2 3 4 5 6 7 8 9 10 11 12 13 14 15 16 17 18 19 20 21 22 23 24 25 26 27 28 29 30 31 32 33 34 35 36 37 38 39 40 41 42 43 44 45 46 47

815
FTUS43 KDDC 231020 AAB
TAFGCK
TAF AMD
KGCK 231020Z 2310/2406 16014KT 1/2SM FG VV002
     FM231300 18019G28KT 3SM BR OVC002
     FM231500 19019G28KT 4SM BR BKN020
     FM231700 19021G30KT P6SM BKN130
     FM240000 17021G33KT P6SM -SHRA VCTS BKN090CB
     FM240300 17018G27KT P6SM -SHRA VCTS BKN120CB WS020/18050KT=

USA.gov is the U.S. government's official web portal to all federal, state and local government web resources and services.